TimeMDT,TemperatureF,Dew PointF,Humidity,Sea Level PressureIn,VisibilityMPH,Wind Direction,Wind SpeedMPH,Gust SpeedMPH,PrecipitationIn,Events,Conditions,WindDirDegrees,DateUTC
12:55 AM,45.0,26.1,48,30.05,10.0,NW,5.8,-,N/A,,Clear,310,2012-09-20 06:55:00
1:55 AM,43.0,27.0,53,30.07,10.0,West,3.5,-,N/A,,Clear,260,2012-09-20 07:55:00
2:55 AM,43.0,27.0,53,30.06,10.0,West,5.8,-,N/A,,Clear,270,2012-09-20 08:55:00
3:55 AM,45.0,26.1,48,30.03,10.0,West,5.8,-,N/A,,Clear,280,2012-09-20 09:55:00
4:55 AM,44.1,27.0,51,30.04,10.0,West,4.6,-,N/A,,Clear,260,2012-09-20 10:55:00
5:55 AM,45.0,28.0,52,30.04,10.0,Calm,Calm,-,N/A,,Clear,0,2012-09-20 11:55:00
6:55 AM,45.0,28.9,53,30.05,10.0,Calm,Calm,-,N/A,,Clear,0,2012-09-20 12:55:00
7:55 AM,50.0,28.9,44,30.04,10.0,Calm,Calm,-,N/A,,Overcast,0,2012-09-20 13:55:00
8:55 AM,54.0,30.9,41,30.05,10.0,WNW,4.6,-,N/A,,Overcast,300,2012-09-20 14:55:00
9:55 AM,61.0,28.9,30,30.04,10.0,NNE,3.5,-,N/A,,Overcast,20,2012-09-20 15:55:00
10:55 AM,66.0,28.9,25,30.02,10.0,Calm,Calm,-,N/A,,Overcast,0,2012-09-20 16:55:00
11:55 AM,71.1,28.9,21,30.01,10.0,Calm,Calm,-,N/A,,Overcast,0,2012-09-20 17:55:00
12:55 PM,73.9,30.9,21,29.99,10.0,North,6.9,-,N/A,,Scattered Clouds,360,2012-09-20 18:55:00
1:55 PM,75.9,32.0,20,29.96,10.0,North,8.1,-,N/A,,Clear,350,2012-09-20 19:55:00
2:55 PM,75.9,32.0,20,29.94,10.0,NW,9.2,17.3,N/A,,Clear,320,2012-09-20 20:55:00
3:55 PM,77.0,32.0,19,29.92,10.0,NW,9.2,-,N/A,,Clear,310,2012-09-20 21:55:00
4:55 PM,75.9,32.0,20,29.90,10.0,NW,12.7,20.7,N/A,,Clear,310,2012-09-20 22:55:00
5:55 PM,73.9,33.1,22,29.89,10.0,WNW,9.2,-,N/A,,Clear,300,2012-09-20 23:55:00
6:55 PM,66.0,32.0,28,29.91,10.0,WNW,6.9,-,N/A,,Clear,290,2012-09-21 00:55:00
7:55 PM,66.9,32.0,27,29.92,10.0,NNW,11.5,-,N/A,,Clear,330,2012-09-21 01:55:00
8:55 PM,57.9,32.0,37,29.94,10.0,NW,6.9,-,N/A,,Clear,320,2012-09-21 02:55:00
9:55 PM,55.9,30.9,39,29.94,10.0,WNW,6.9,-,N/A,,Clear,300,2012-09-21 03:55:00
10:55 PM,51.1,30.9,46,29.96,10.0,West,8.1,-,N/A,,Clear,260,2012-09-21 04:55:00
11:55 PM,55.0,32.0,42,29.95,10.0,WNW,10.4,-,N/A,,Clear,300,2012-09-21 05:55:00